[[{"header":{"parameterUnit":"m.s-1","parameterCategory":2,"la1":30.2991,"la2":30.254,"lo1":-89.0895,"lo2":-89.0444,"dy":0.0017,"dx":0.0017,"nx":28,"ny":28,"refTime":"2025-09-16T03:00:00:Z","depth":"0","parameterNumber":2,"parameterNumberName":"U-component_of_CURRENTS"},"data":[0,0,0,0,0,0,0,0,0,0,0,0,0,0,0,0,0,0,0,0,0,0,0,0,0,0,0,0,0,0,0,0,0,0,0,0,0,0,0,0,0,0,0,0,0,0,0,0,0,0,0,0,0,0,0,0,0,0,0.3056,0.3058,0,0.3125,0.3125,0.3124,0.3105,0.3105,0.3104,0.3104,0.3139,0.314,0.3141,0,0,0,0,0,0,0,0,0,0,0,0,0,0.2982,0.2982,0.3056,0.3058,0.306,0.3125,0.3125,0.3124,0.3105,0.3105,0.3104,0.3104,0.3139,0.314,0.3142,0,0,0,0,0,0,0,0,0,0,0,0,0,0.3015,0.2981,0.3056,0.3069,0.3072,0.3125,0.3125,0.3124,0.3105,0.3105,0.3104,0.3104,0.3139,0.314,0.3142,0.3154,0,0,0.3146,0.3147,0,0,0,0,0,0,0,0,0.3013,0.3016,0.3065,0.3068,0.3072,0.3119,0.3113,0.3138,0.3105,0.3077,0.3104,0.3104,0.3139,0.314,0.3134,0.3156,0.3157,0.3146,0.3147,0.3148,0.3148,0,0,0,0,0,0,0,0.301,0.3013,0.3069,0.3068,0.3072,0.3099,0.31,0.3116,0.3096,0.3079,0.3082,0.3112,0.3138,0.3132,0.3135,0.3158,0.3146,0.3148,0.3149,0.3149,0.3249,0.3251,0,0,0,0,0,0,0.3027,0.3011,0.3067,0.3072,0.3058,0.3101,0.3102,0.3092,0.3097,0.3102,0.3113,0.3112,0.313,0.3133,0.3136,0.3202,0.3148,0.3149,0.315,0.3247,0.325,0.3251,0,0,0,0,0,0,0.3024,0.303,0.3064,0.3057,0.3065,0.3103,0.3091,0.3094,0.3098,0.3125,0.3126,0.3118,0.313,0.3134,0.3164,0.3201,0.315,0.3152,0.3245,0.3248,0.325,0.3302,0,0,0,0,0,0,0.3021,0.3027,0.3014,0.3057,0.3067,0.3104,0.3093,0.3096,0.3124,0.3123,0.313,0.3132,0.313,0.3162,0.3166,0.3202,0.3153,0.3243,0.3247,0.325,0.3298,0.3306,0.3313,0,0,0,0,0,0.3017,0.3007,0.3012,0.302,0.3049,0.3107,0.3112,0.313,0.3125,0.313,0.3139,0.3132,0.3185,0.3164,0.3168,0.3207,0.3242,0.3246,0.3249,0.3295,0.3304,0.3312,0,0,0,0,0,0,0.2966,0.3008,0.3012,0.3013,0.3064,0.3109,0.312,0.3138,0.3146,0.3142,0.3149,0.3152,0.3208,0.3194,0.3171,0.3246,0.3215,0.322,0.3248,0.3258,0.3265,0.329,0.3154,0,0,0,0,0,0.2953,0.2953,0.3011,0.3015,0.3036,0.3077,0.31,0.3122,0.315,0.3152,0.317,0.3188,0.3226,0.3229,0.3262,0.3284,0.3303,0.3314,0.3322,0.3328,0.3352,0.3413,0.3428,0.3264,0.3264,0.3264,0,0,0.2951,0.2965,0.2973,0.3006,0.3035,0.3086,0.3086,0.313,0.318,0.3157,0.3209,0.3227,0.3245,0.3289,0.3309,0.3277,0.3382,0.3333,0.3338,0.336,0.3419,0.3435,0.3449,0.3267,0.3266,0.3266,0,0,0.2962,0.2942,0.2962,0.2998,0.3058,0.3089,0.3109,0.3166,0.319,0.3241,0.3258,0.3297,0.3325,0.3359,0.3375,0.3441,0.3439,0.3444,0.3478,0.3536,0.355,0.3563,0.3596,0.3611,0.3423,0.3423,0.3423,0,0.2954,0.2978,0.2983,0.3018,0.3062,0.3096,0.3153,0.3187,0.3253,0.3289,0.3265,0.3358,0.3369,0.3448,0.3467,0.3462,0.348,0.3439,0.3546,0.3559,0.3572,0.3602,0.3618,0.3426,0.3426,0.3426,0.3425,0,0.3009,0.3019,0.3035,0.3085,0.3125,0.3176,0.3243,0.3287,0.3314,0.3356,0.3441,0.3456,0.3507,0.3517,0.3507,0.3605,0.3585,0.3567,0.3522,0.3591,0.3618,0.3635,0.343,0.3429,0.3428,0.3428,0,0,0.2993,0.3064,0.3063,0.3101,0.3165,0.3211,0.329,0.3381,0.3434,0.3484,0.3555,0.362,0.3624,0.3645,0.3647,0.368,0.3771,0.3651,0.3653,0.3682,0.3885,0.3725,0.3727,0.3764,0.3768,0.3771,0.3864,0,0.3035,0.3118,0.3138,0.322,0.3272,0.3316,0.3384,0.3463,0.351,0.358,0.3623,0.3684,0.3674,0.3686,0.3734,0.3764,0.3818,0.3747,0.3817,0.3819,0.3668,0.3742,0.3512,0.3564,0.388,0.3883,0.3884,0,0.3069,0.3123,0.3219,0.3293,0.3318,0.3366,0.3468,0.3536,0.3632,0.3665,0.3732,0.3759,0.3841,0.3804,0.392,0.3869,0.3902,0.3915,0.3918,0.3768,0.369,0.355,0.3581,0.348,0.3909,0.3907,0.3905,0,0.3073,0.3158,0.324,0.3272,0.3375,0.3417,0.3466,0.3559,0.3612,0.3716,0.375,0.3849,0.3889,0.3956,0.3989,0.3962,0.4094,0.4055,0.3958,0.3946,0.3765,0.373,0.3705,0.4173,0.4173,0.4172,0.4172,0,0.3101,0.3151,0.3243,0.3292,0.3364,0.3424,0.3495,0.3561,0.364,0.3708,0.3787,0.3852,0.3931,0.4003,0.4031,0.4033,0.4139,0.3992,0.397,0.3771,0.3737,0.365,0.3632,0.4176,0.4175,0.4174,0.4174,0,0.309,0.3159,0.324,0.3345,0.3368,0.3414,0.3484,0.3537,0.3619,0.3707,0.3741,0.3869,0.3944,0.4006,0.4104,0.4064,0.3959,0.4079,0.382,0.3765,0.3503,0.3495,0.338,0.3293,0.3962,0.3958,0.3956,0,0.3102,0.3152,0.3256,0.3292,0.3332,0.3396,0.3437,0.3514,0.3562,0.3718,0.3758,0.3865,0.3898,0.3956,0.3906,0.3901,0.3868,0.3708,0.3611,0.3472,0.3452,0.3366,0.3298,0.3402,0.3395,0.3389,0.3385,0,0.3127,0.3158,0.3237,0.3293,0.3335,0.3372,0.3428,0.3449,0.3558,0.3619,0.3706,0.3736,0.3763,0.362,0.3595,0.3577,0.3476,0.3584,0.3528,0.3085,0.2909,0.2817,0.3357,0.3333,0.3338,0.3342,0.3345,0.3347,0.3132,0.3169,0.3253,0.3282,0.3328,0.3325,0.3296,0.3353,0.3382,0.3396,0.3554,0.3485,0.3406,0.3285,0.3254,0.3014,0.3108,0.2899,0.2928,0.2876,0.2694,0.3096,0.2984,0.2987,0.2989,0.2992,0.2994,0,0.3129,0.3172,0.3227,0.3248,0.3232,0.3265,0.327,0.3193,0.3151,0.3184,0.3187,0.3016,0.2834,0.2757,0.2533,0.239,0.2313,0.2336,0.2194,0.2184,0.261,0.2483,0.2148,0.2149,0.2149,0.2149,0.2149,0.2149,0.314,0.3179,0.3184,0.3132,0.3122,0.3012,0.2964,0.287,0.2827,0.264,0.2488,0.2473,0.2424,0.2272,0.2045,0.198,0.1879,0.1728,0.1842,0.2159,0.2214,0.2267,0.2143,0.1742,0.1742,0.1272,0.1268,0.1265]},{"header":{"parameterUnit":"m.s-1","parameterCategory":2,"la1":30.2991,"la2":30.254,"lo1":-89.0895,"lo2":-89.0444,"dy":0.0017,"dx":0.0017,"nx":28,"ny":28,"refTime":"2025-09-16T03:00:00:Z","depth":"0","parameterNumber":3,"parameterNumberName":"V-component_of_CURRENTS"},"data":[0,0,0,0,0,0,0,0,0,0,0,0,0,0,0,0,0,0,0,0,0,0,0,0,0,0,0,0,0,0,0,0,0,0,0,0,0,0,0,0,0,0,0,0,0,0,0,0,0,0,0,0,0,0,0,0,0,0,0.0123,0.0122,0,0.0069,0.0069,0.0068,0.0033,0.0033,0.0033,0.0033,0.0042,0.0042,0.0043,0,0,0,0,0,0,0,0,0,0,0,0,0,0.0212,0.0211,0.0123,0.0122,0.0121,0.0069,0.0069,0.0068,0.0034,0.0033,0.0033,0.0033,0.0042,0.0042,0.0043,0,0,0,0,0,0,0,0,0,0,0,0,0,0.0168,0.021,0.0123,0.0098,0.0095,0.0069,0.0069,0.0068,0.0034,0.0033,0.0033,0.0032,0.0041,0.0042,0.0043,0.0055,0,0,0.0045,0.0045,0,0,0,0,0,0,0,0,0.017,0.0165,0.0102,0.0099,0.0096,0.0057,0.0103,0.0066,0.0034,0.0057,0.0033,0.0032,0.0053,0.0052,0.0043,0.0055,0.0056,0.0045,0.0045,0.0046,0.0046,0,0,0,0,0,0,0,0.0173,0.0167,0.0102,0.0101,0.0098,0.0095,0.0088,0.0096,0.0059,0.0055,0.0053,0.0046,0.0051,0.0042,0.0043,0.0056,0.0045,0.0046,0.0046,0.0046,0.0107,0.0108,0,0,0,0,0,0,0.0178,0.017,0.0104,0.01,0.0132,0.0093,0.0086,0.0071,0.0058,0.0055,0.0046,0.0044,0.0041,0.0042,0.0043,0.0095,0.0046,0.0046,0.0047,0.0106,0.0107,0.0108,0,0,0,0,0,0,0.018,0.0173,0.0106,0.0134,0.0125,0.0092,0.0075,0.007,0.0061,0.005,0.0048,0.0043,0.0041,0.0042,0.0056,0.0094,0.0047,0.0047,0.0104,0.0106,0.0108,0.0175,0,0,0,0,0,0,0.0183,0.0174,0.0165,0.0134,0.0124,0.0112,0.0075,0.0069,0.0057,0.0054,0.0047,0.0047,0.0041,0.0055,0.0057,0.0094,0.0048,0.0103,0.0105,0.0107,0.0171,0.0179,0.0185,0,0,0,0,0,0.0186,0.0184,0.0165,0.0157,0.0113,0.0113,0.0109,0.0084,0.0057,0.007,0.0054,0.0047,0.007,0.0056,0.0058,0.0097,0.0102,0.0104,0.0107,0.0168,0.0177,0.0185,0,0,0,0,0,0,0.0218,0.0179,0.0158,0.0142,0.0136,0.0108,0.0111,0.0088,0.0081,0.0075,0.0057,0.0058,0.0085,0.0078,0.0063,0.012,0.0088,0.0091,0.0134,0.0142,0.0149,0.0191,0.0049,0,0,0,0,0,0.022,0.0208,0.0179,0.0171,0.0168,0.0138,0.0131,0.0116,0.0103,0.0098,0.009,0.0087,0.0097,0.0108,0.0113,0.0144,0.0153,0.0171,0.0178,0.0184,0.0219,0.0255,0.027,0.0117,0.0117,0.0117,0,0,0.0234,0.0207,0.0202,0.0177,0.0166,0.018,0.0134,0.0134,0.0148,0.0103,0.0122,0.0109,0.0108,0.0141,0.0154,0.0142,0.0228,0.0187,0.0193,0.0225,0.026,0.0275,0.0288,0.0119,0.0118,0.0118,0,0,0.0261,0.0231,0.0233,0.0234,0.0219,0.021,0.0213,0.0192,0.0187,0.0196,0.0171,0.0188,0.0188,0.021,0.0217,0.0269,0.0258,0.026,0.0339,0.0373,0.0387,0.0399,0.0412,0.0425,0.027,0.027,0.027,0,0.0275,0.027,0.0241,0.025,0.0259,0.023,0.0254,0.0252,0.0237,0.0256,0.0216,0.0248,0.0233,0.0303,0.031,0.0291,0.0294,0.0305,0.0385,0.0397,0.0408,0.0419,0.0432,0.0274,0.0273,0.0273,0.0272,0,0.0312,0.0309,0.0319,0.0321,0.0332,0.0352,0.0347,0.0364,0.0346,0.0347,0.0394,0.0374,0.0407,0.0394,0.0363,0.0444,0.0413,0.0383,0.0366,0.0428,0.0435,0.0447,0.0279,0.0277,0.0276,0.0275,0,0,0.0341,0.0342,0.0349,0.0363,0.0372,0.039,0.043,0.0471,0.0519,0.0505,0.0576,0.0571,0.0566,0.0575,0.0547,0.0568,0.0622,0.0509,0.0509,0.0529,0.0685,0.0619,0.0625,0.0598,0.0601,0.0603,0.0652,0,0.0381,0.0415,0.0409,0.0465,0.0486,0.0492,0.0542,0.0577,0.0598,0.0663,0.0665,0.0715,0.0635,0.0656,0.0668,0.064,0.0661,0.0611,0.0618,0.0619,0.0559,0.0641,0.0591,0.0627,0.0664,0.0666,0.0667,0,0.0421,0.0438,0.0491,0.0539,0.0554,0.059,0.0682,0.0721,0.0805,0.0825,0.0881,0.0883,0.0934,0.0843,0.0857,0.0824,0.0772,0.0734,0.0735,0.0668,0.0578,0.0575,0.0648,0.0554,0.0687,0.0685,0.0684,0,0.0463,0.0501,0.0548,0.0563,0.0615,0.0655,0.0695,0.0776,0.0842,0.0943,0.1014,0.1055,0.1098,0.1052,0.0963,0.092,0.0961,0.0893,0.0792,0.0786,0.0748,0.0733,0.0743,0.092,0.0919,0.0919,0.0919,0,0.0508,0.0548,0.057,0.06,0.0685,0.0699,0.0813,0.0862,0.0968,0.1091,0.1105,0.1212,0.1151,0.1158,0.1046,0.0967,0.1031,0.0842,0.0813,0.0765,0.0751,0.0668,0.0607,0.0921,0.0921,0.092,0.092,0,0.0549,0.0561,0.062,0.0677,0.0702,0.0765,0.0876,0.0972,0.1051,0.1217,0.1263,0.1354,0.1367,0.128,0.1222,0.1088,0.0936,0.0952,0.0887,0.0848,0.0641,0.0585,0.0576,0.0536,0.0866,0.0865,0.0864,0,0.0575,0.0604,0.0677,0.0731,0.0758,0.0846,0.093,0.101,0.1118,0.131,0.1408,0.1482,0.1553,0.1435,0.1222,0.1047,0.0936,0.0868,0.0778,0.066,0.0577,0.0533,0.0497,0.0748,0.0746,0.0745,0.0744,0,0.0631,0.0654,0.0709,0.0812,0.0894,0.0995,0.1106,0.1193,0.1325,0.1463,0.1638,0.1707,0.1613,0.1433,0.1178,0.1036,0.078,0.083,0.0747,0.0534,0.0455,0.039,0.0668,0.0731,0.0732,0.0733,0.0734,0.0734,0.0682,0.0735,0.081,0.091,0.1011,0.1134,0.1215,0.1348,0.1512,0.1698,0.1768,0.1861,0.1593,0.1249,0.1062,0.0667,0.0697,0.0528,0.0485,0.0465,0.0387,0.0623,0.0619,0.062,0.062,0.0621,0.0621,0,0.0744,0.0807,0.0909,0.103,0.1143,0.1178,0.1339,0.1424,0.16,0.176,0.1886,0.1766,0.1446,0.1109,0.058,0.0349,0.0282,0.0243,0.0185,0.0177,0.0426,0.0379,0.0275,0.0276,0.0276,0.0276,0.0276,0.0276,0.0787,0.0886,0.0937,0.1118,0.1203,0.1329,0.1406,0.1537,0.1655,0.1777,0.1791,0.1804,0.1528,0.0709,0.0191,0.0087,-0.0038,-0.009,-0.0109,0.0052,0.0075,0.0098,0.0041,-0.0131,-0.0132,-0.0349,-0.0351,-0.0353]}],[{"header":{"parameterUnit":"m.s-1","parameterCategory":2,"la1":30.2991,"la2":30.254,"lo1":-89.0895,"lo2":-89.0444,"dy":0.0017,"dx":0.0017,"nx":28,"ny":28,"refTime":"2025-09-16T03:00:00:Z","depth":"2","parameterNumber":2,"parameterNumberName":"U-component_of_CURRENTS"},"data":[0,0,0,0,0,0,0,0,0,0,0,0,0,0,0,0,0,0,0,0,0,0,0,0,0,0,0,0,0,0,0,0,0,0,0,0,0,0,0,0,0,0,0,0,0,0,0,0,0,0,0,0,0,0,0,0,0,0,0.209,0.2091,0,0.228,0.2283,0.2285,0.2357,0.2356,0.2355,0.2354,0.2333,0.2333,0.2334,0,0,0,0,0,0,0,0,0,0,0,0,0,0.2112,0.211,0.209,0.2091,0.2093,0.2279,0.2283,0.2286,0.2358,0.2356,0.2355,0.2353,0.2332,0.2333,0.2334,0,0,0,0,0,0,0,0,0,0,0,0,0,0.2189,0.2109,0.2089,0.2145,0.2152,0.2279,0.2283,0.2287,0.2358,0.2356,0.2354,0.2352,0.2332,0.2333,0.2334,0.2379,0,0,0.2337,0.2337,0,0,0,0,0,0,0,0,0.2184,0.2189,0.2136,0.2142,0.2149,0.2286,0.2283,0.2304,0.2359,0.2288,0.2354,0.2351,0.2294,0.2298,0.2352,0.2378,0.2377,0.2337,0.2338,0.2338,0.2338,0,0,0,0,0,0,0,0.2178,0.2183,0.2173,0.2137,0.2146,0.2272,0.2278,0.2291,0.2301,0.2294,0.2298,0.2307,0.2297,0.2351,0.2351,0.2376,0.2337,0.2338,0.2338,0.2339,0.2368,0.2368,0,0,0,0,0,0,0.2124,0.2176,0.2167,0.2178,0.2153,0.2271,0.2279,0.225,0.2306,0.2312,0.2309,0.231,0.2351,0.235,0.235,0.2402,0.2338,0.2339,0.234,0.2368,0.2368,0.2368,0,0,0,0,0,0,0.2123,0.212,0.2159,0.2178,0.2191,0.2269,0.2239,0.2255,0.232,0.2318,0.2321,0.2357,0.2349,0.2349,0.2321,0.2401,0.2339,0.234,0.2367,0.2368,0.2368,0.2506,0,0,0,0,0,0,0.2122,0.2117,0.2106,0.2172,0.2187,0.221,0.2241,0.226,0.2324,0.2328,0.236,0.2356,0.2348,0.2319,0.2322,0.2401,0.2341,0.2367,0.2367,0.2368,0.2501,0.2511,0.252,0,0,0,0,0,0.2122,0.2122,0.2103,0.2104,0.2157,0.221,0.223,0.2288,0.2328,0.2346,0.2344,0.2356,0.2324,0.2319,0.2322,0.2404,0.2367,0.2367,0.2368,0.2497,0.2509,0.2519,0,0,0,0,0,0,0.2137,0.2131,0.2111,0.2108,0.2133,0.2218,0.2275,0.2305,0.2337,0.2342,0.2346,0.234,0.236,0.2336,0.2331,0.2404,0.2355,0.2356,0.2452,0.2463,0.2472,0.2531,0.2342,0,0,0,0,0,0.2123,0.2115,0.2122,0.2122,0.2144,0.2213,0.2256,0.2275,0.2305,0.2325,0.2334,0.2343,0.2372,0.2372,0.2373,0.2404,0.2404,0.2456,0.2465,0.2473,0.2517,0.2559,0.2578,0.2369,0.2369,0.2369,0,0,0.2133,0.2128,0.2126,0.2125,0.2178,0.221,0.2238,0.2294,0.2333,0.231,0.2369,0.2374,0.2381,0.2418,0.2428,0.2405,0.2523,0.2474,0.2482,0.2522,0.2562,0.2583,0.2602,0.237,0.237,0.237,0,0,0.2152,0.2144,0.2143,0.2168,0.2201,0.2236,0.2246,0.2305,0.235,0.2372,0.2391,0.2433,0.2439,0.2492,0.2517,0.2573,0.257,0.2565,0.2672,0.2712,0.2731,0.2748,0.2749,0.2766,0.2571,0.2571,0.2571,0,0.2163,0.2151,0.2159,0.2176,0.2218,0.2244,0.2277,0.2333,0.2364,0.2419,0.238,0.2473,0.25,0.2598,0.2646,0.2611,0.26,0.2642,0.2731,0.2748,0.2763,0.276,0.2777,0.2578,0.2577,0.2576,0.2576,0,0.214,0.2184,0.2213,0.2221,0.2257,0.2304,0.2344,0.2387,0.2434,0.2491,0.2572,0.2583,0.2636,0.2676,0.2704,0.2839,0.2784,0.2743,0.2721,0.2794,0.2783,0.2798,0.2587,0.2585,0.2583,0.2581,0,0,0.2114,0.2172,0.2215,0.2228,0.2294,0.2311,0.2401,0.2491,0.2575,0.2597,0.27,0.2806,0.2818,0.2847,0.2864,0.2949,0.3082,0.292,0.2919,0.2952,0.3141,0.2972,0.2971,0.3051,0.3055,0.3058,0.3082,0,0.2126,0.2143,0.2203,0.2282,0.2299,0.2382,0.2466,0.2545,0.2627,0.2719,0.2791,0.2897,0.2874,0.2933,0.2992,0.3081,0.3131,0.3078,0.3039,0.3038,0.2906,0.2987,0.2756,0.2748,0.3096,0.3099,0.31,0,0.212,0.2133,0.2174,0.2294,0.2323,0.2372,0.2512,0.2593,0.2756,0.2833,0.2916,0.2972,0.3126,0.3076,0.3196,0.3155,0.3172,0.3213,0.3212,0.303,0.2898,0.2732,0.2761,0.3124,0.3122,0.3121,0.3119,0,0.2078,0.2165,0.2185,0.2214,0.2312,0.2385,0.247,0.2632,0.2748,0.2933,0.3017,0.312,0.3181,0.3236,0.3308,0.3279,0.3407,0.3346,0.3181,0.3167,0.2955,0.2914,0.3421,0.3421,0.3421,0.3421,0.3421,0,0.2096,0.216,0.2151,0.2192,0.2274,0.2332,0.2495,0.2626,0.2783,0.2913,0.3057,0.3116,0.3239,0.3304,0.334,0.3293,0.3397,0.3236,0.3182,0.2985,0.295,0.3261,0.3242,0.3422,0.3422,0.3422,0.3422,0,0.2131,0.2124,0.2184,0.2249,0.2276,0.2348,0.2552,0.2638,0.2802,0.2954,0.3036,0.317,0.3233,0.3298,0.3403,0.3309,0.3336,0.3281,0.3027,0.2943,0.3054,0.3041,0.3106,0.3101,0.3096,0.3092,0.3089,0,0.2141,0.2141,0.2232,0.2267,0.2331,0.2424,0.2497,0.2668,0.2731,0.2948,0.2967,0.3114,0.3121,0.316,0.3109,0.3089,0.3201,0.2851,0.2763,0.3091,0.3033,0.3027,0.3021,0.2529,0.2521,0.2515,0.251,0,0.2191,0.2234,0.2287,0.233,0.2394,0.2483,0.2563,0.2601,0.2744,0.2836,0.2884,0.294,0.292,0.277,0.2746,0.2707,0.2842,0.2717,0.3166,0.2626,0.2544,0.2487,0.2501,0.2456,0.2461,0.2465,0.2468,0.247,0.2258,0.23,0.2335,0.238,0.2444,0.2468,0.2482,0.2494,0.2556,0.2557,0.2662,0.261,0.2591,0.2386,0.2308,0.2256,0.2431,0.2351,0.2372,0.24,0.231,0.2223,0.2057,0.206,0.2062,0.2065,0.2067,0,0.2262,0.2298,0.2351,0.2379,0.2381,0.2456,0.2439,0.2359,0.2287,0.2318,0.2295,0.2077,0.1954,0.1962,0.1776,0.1745,0.1765,0.1691,0.1717,0.1771,0.182,0.1704,0.1288,0.1286,0.1284,0.1281,0,0,0.2289,0.2306,0.2297,0.2255,0.227,0.2214,0.2172,0.2051,0.1998,0.1867,0.1791,0.1854,0.1912,0.1583,0.1521,0.1383,0.1578,0.1328,0.1955,0.2043,0.2088,0.2199,0.2079,0,0,0,0,0]},{"header":{"parameterUnit":"m.s-1","parameterCategory":2,"la1":30.2991,"la2":30.254,"lo1":-89.0895,"lo2":-89.0444,"dy":0.0017,"dx":0.0017,"nx":28,"ny":28,"refTime":"2025-09-16T03:00:00:Z","depth":"2","parameterNumber":3,"parameterNumberName":"V-component_of_CURRENTS"},"data":[0,0,0,0,0,0,0,0,0,0,0,0,0,0,0,0,0,0,0,0,0,0,0,0,0,0,0,0,0,0,0,0,0,0,0,0,0,0,0,0,0,0,0,0,0,0,0,0,0,0,0,0,0,0,0,0,0,0,-0.0064,-0.0065,0,-0.0102,-0.0103,-0.0103,-0.0131,-0.0131,-0.0131,-0.0131,-0.016,-0.0161,-0.0162,0,0,0,0,0,0,0,0,0,0,0,0,0,-0.0,-0.0002,-0.0064,-0.0065,-0.0065,-0.0102,-0.0103,-0.0103,-0.0131,-0.0131,-0.0131,-0.0131,-0.016,-0.0161,-0.0162,0,0,0,0,0,0,0,0,0,0,0,0,0,-0.0034,-0.0002,-0.0064,-0.0082,-0.0084,-0.0102,-0.0103,-0.0104,-0.0131,-0.0131,-0.0131,-0.0131,-0.016,-0.0161,-0.0162,-0.0166,0,0,-0.0165,-0.0165,0,0,0,0,0,0,0,0,-0.0032,-0.0036,-0.0079,-0.0081,-0.0083,-0.0111,-0.0091,-0.0123,-0.0131,-0.0114,-0.0131,-0.0131,-0.0142,-0.0144,-0.0153,-0.0167,-0.0168,-0.0165,-0.0166,-0.0166,-0.0167,0,0,0,0,0,0,0,-0.0029,-0.0035,-0.0081,-0.0079,-0.0082,-0.0083,-0.0088,-0.0097,-0.0128,-0.0116,-0.0117,-0.0119,-0.0143,-0.0152,-0.0154,-0.0169,-0.0165,-0.0166,-0.0167,-0.0167,-0.0167,-0.0166,0,0,0,0,0,0,-0.0023,-0.0033,-0.0079,-0.0082,-0.0055,-0.0084,-0.009,-0.0103,-0.0128,-0.0132,-0.0119,-0.012,-0.015,-0.0153,-0.0155,-0.0152,-0.0166,-0.0167,-0.0168,-0.0168,-0.0167,-0.0166,0,0,0,0,0,0,-0.0021,-0.0027,-0.0078,-0.0056,-0.0062,-0.0085,-0.0099,-0.0103,-0.0112,-0.013,-0.0134,-0.0123,-0.0151,-0.0154,-0.016,-0.0154,-0.0168,-0.0169,-0.0168,-0.0167,-0.0166,-0.0151,0,0,0,0,0,0,-0.002,-0.0027,-0.0032,-0.0056,-0.0063,-0.0084,-0.0099,-0.0104,-0.0112,-0.0114,-0.0135,-0.0138,-0.0151,-0.0158,-0.0161,-0.0155,-0.0169,-0.0169,-0.0168,-0.0167,-0.0152,-0.015,-0.0148,0,0,0,0,0,-0.0017,-0.002,-0.0032,-0.0038,-0.0071,-0.0084,-0.0088,-0.0105,-0.0112,-0.0113,-0.0126,-0.0137,-0.0152,-0.0159,-0.0162,-0.0157,-0.017,-0.0168,-0.0167,-0.0154,-0.015,-0.0148,0,0,0,0,0,0,0.0004,-0.0024,-0.0038,-0.005,-0.0065,-0.0088,-0.0088,-0.0102,-0.0114,-0.0114,-0.0134,-0.0138,-0.0143,-0.0147,-0.0154,-0.0151,-0.016,-0.016,-0.0149,-0.0146,-0.0144,-0.0103,-0.017,0,0,0,0,0,0.0006,-0.0006,-0.003,-0.004,-0.0044,-0.0066,-0.0073,-0.0085,-0.0099,-0.0105,-0.0124,-0.0134,-0.0139,-0.0141,-0.0151,-0.015,-0.0139,-0.0145,-0.0143,-0.0141,-0.0108,-0.0068,-0.0058,-0.0161,-0.0161,-0.0161,0,0,0.0009,-0.0005,-0.0014,-0.0036,-0.0048,-0.0048,-0.0071,-0.0077,-0.0078,-0.0105,-0.0114,-0.0131,-0.0138,-0.014,-0.0141,-0.0142,-0.0118,-0.0139,-0.0137,-0.0105,-0.0065,-0.0055,-0.0046,-0.016,-0.0161,-0.0161,0,0,0.0023,0.0,0.0002,-0.0008,-0.0021,-0.0033,-0.0033,-0.0058,-0.0067,-0.0079,-0.0095,-0.0093,-0.0122,-0.0111,-0.0111,-0.0094,-0.011,-0.0114,-0.0065,-0.0027,-0.0018,-0.0009,-0.0037,-0.003,-0.0108,-0.0108,-0.0108,0,0.0029,0.0022,0.0001,0.0005,0.0003,-0.0023,-0.0014,-0.0027,-0.0054,-0.0048,-0.0077,-0.0072,-0.0096,-0.0055,-0.0066,-0.0085,-0.0092,-0.0082,-0.0023,-0.0014,-0.0005,-0.0034,-0.0028,-0.0107,-0.0107,-0.0107,-0.0108,0,0.0045,0.0041,0.0044,0.0037,0.0036,0.0035,0.0022,0.002,0.0,-0.0013,0.0006,-0.0011,0.0003,-0.0017,-0.0047,0.0005,-0.0035,-0.0031,-0.0029,0.0007,-0.0028,-0.0021,-0.0106,-0.0106,-0.0107,-0.0107,0,0,0.0054,0.0053,0.0054,0.0067,0.0052,0.006,0.0068,0.0075,0.0101,0.0074,0.0123,0.0094,0.009,0.0093,0.0073,0.0097,0.0106,0.005,0.0051,0.0025,0.0138,0.0081,0.0082,0.0114,0.0117,0.0119,0.007,0,0.0071,0.0094,0.0083,0.0109,0.0126,0.0114,0.0129,0.0137,0.0132,0.0168,0.0178,0.0201,0.013,0.0146,0.0158,0.0146,0.0133,0.0116,0.0109,0.0108,0.0057,0.0094,0.0116,0.0074,0.0077,0.0078,0.0078,0,0.0085,0.0108,0.0133,0.0167,0.0173,0.0179,0.0224,0.0232,0.027,0.0276,0.0313,0.0312,0.0355,0.0292,0.0293,0.0281,0.0202,0.0175,0.0173,0.0135,0.0067,0.005,0.0086,0.009,0.0089,0.0088,0.0087,0,0.0109,0.0141,0.0167,0.0171,0.0202,0.0219,0.0232,0.0261,0.0296,0.0356,0.0411,0.044,0.0492,0.0441,0.0357,0.0326,0.0352,0.0308,0.0173,0.0165,0.0196,0.0187,0.029,0.029,0.029,0.029,0.029,0,0.012,0.0147,0.0182,0.0191,0.0243,0.0255,0.0306,0.0323,0.0395,0.0485,0.0471,0.0569,0.0536,0.0539,0.042,0.033,0.0395,0.0199,0.0173,0.0192,0.0184,0.0222,0.0215,0.0288,0.0289,0.0289,0.0289,0,0.0126,0.0141,0.0179,0.0224,0.0243,0.0275,0.0339,0.041,0.045,0.0587,0.0624,0.069,0.069,0.0609,0.0547,0.0427,0.0334,0.0261,0.025,0.0224,0.0088,0.0082,0.0121,0.0119,0.0117,0.0116,0.0115,0,0.0127,0.0146,0.0193,0.0238,0.0251,0.0309,0.0377,0.0424,0.0532,0.0671,0.0785,0.0808,0.0854,0.0718,0.0532,0.0329,0.0297,0.0191,0.0144,0.0112,0.0083,0.0079,0.0075,0.0159,0.0159,0.0158,0.0158,0,0.0145,0.0148,0.0187,0.0278,0.0346,0.043,0.0539,0.063,0.0752,0.0861,0.1025,0.1053,0.0924,0.0764,0.0475,0.0333,0.0234,0.0169,0.0206,0.0193,0.0145,0.0116,0.0112,0.0153,0.0153,0.0154,0.0154,0.0154,0.016,0.0192,0.0255,0.0351,0.0444,0.0588,0.0662,0.0822,0.0977,0.1148,0.1175,0.1191,0.1001,0.0624,0.0408,0.0168,0.016,0.0069,0.0073,0.0078,0.0086,0.0037,0.0023,0.0022,0.0022,0.0022,0.0022,0,0.0211,0.0263,0.0349,0.0473,0.0607,0.0631,0.0823,0.0918,0.1118,0.1216,0.1292,0.109,0.0892,0.0649,0.0289,0.0072,0.0075,0.0004,0.0064,0.007,0.0075,0.0085,0.002,0.0019,0.0019,0.0018,0,0,0.0245,0.0336,0.0396,0.0622,0.0716,0.0865,0.0966,0.1091,0.1182,0.125,0.1234,0.119,0.0936,0.0671,0.0401,0.0211,0.0185,0.017,0.0192,0.03,0.0307,0.0131,0.0154,0,0,0,0,0]}],[{"header":{"parameterUnit":"m.s-1","parameterCategory":2,"la1":30.2991,"la2":30.254,"lo1":-89.0895,"lo2":-89.0444,"dy":0.0017,"dx":0.0017,"nx":28,"ny":28,"refTime":"2025-09-16T03:00:00:Z","depth":"4","parameterNumber":2,"parameterNumberName":"U-component_of_CURRENTS"},"data":[0,0,0,0,0,0,0,0,0,0,0,0,0,0,0,0,0,0,0,0,0,0,0,0,0,0,0,0,0,0,0,0,0,0,0,0,0,0,0,0,0,0,0,0,0,0,0,0,0,0,0,0,0,0,0,0,0,0,0.0913,0.0914,0,0.0942,0.0942,0.0942,0.0996,0.0997,0.0998,0.0999,0.103,0.103,0.1029,0,0,0,0,0,0,0,0,0,0,0,0,0,0.0933,0.0932,0.0913,0.0914,0.0914,0.0942,0.0942,0.0942,0.0996,0.0997,0.0998,0.1,0.103,0.103,0.1029,0,0,0,0,0,0,0,0,0,0,0,0,0,0.0938,0.0932,0.0913,0.0945,0.0948,0.0942,0.0942,0.0942,0.0995,0.0997,0.0999,0.1,0.103,0.103,0.1029,0.0992,0,0,0.1028,0.1028,0,0,0,0,0,0,0,0,0.0937,0.0937,0.094,0.0943,0.0946,0.0968,0.096,0.096,0.0995,0.0976,0.0999,0.1001,0.1009,0.101,0.101,0.0994,0.0995,0.1028,0.1028,0.1028,0.1027,0,0,0,0,0,0,0,0.0937,0.0936,0.0923,0.094,0.0944,0.0968,0.097,0.096,0.0981,0.0978,0.0982,0.0987,0.1011,0.101,0.1011,0.0995,0.1028,0.1028,0.1027,0.1027,0.1072,0.1073,0,0,0,0,0,0,0.0932,0.0935,0.0922,0.0924,0.0948,0.0966,0.0968,0.0958,0.0982,0.0987,0.0985,0.0989,0.101,0.1012,0.1012,0.1048,0.1028,0.1027,0.1027,0.1071,0.1072,0.1074,0,0,0,0,0,0,0.0932,0.093,0.0921,0.0933,0.0933,0.0963,0.0952,0.0958,0.0991,0.0987,0.0993,0.1016,0.1011,0.1013,0.1041,0.1047,0.1027,0.1027,0.1069,0.1071,0.1073,0.1069,0,0,0,0,0,0,0.0932,0.0929,0.0939,0.0932,0.0933,0.0934,0.0951,0.0957,0.099,0.0996,0.1015,0.1018,0.1013,0.1042,0.104,0.1046,0.1026,0.1067,0.107,0.1072,0.1068,0.1071,0.1074,0,0,0,0,0,0.0933,0.0936,0.0939,0.0939,0.0938,0.0935,0.0938,0.0964,0.099,0.1002,0.1027,0.1019,0.1058,0.1042,0.104,0.1046,0.1066,0.1069,0.1072,0.1066,0.107,0.1074,0,0,0,0,0,0,0.0954,0.0942,0.0945,0.0946,0.0948,0.0945,0.0965,0.0979,0.1007,0.1025,0.1028,0.1032,0.1064,0.106,0.1043,0.1073,0.1064,0.1067,0.106,0.1064,0.1067,0.1108,0.1026,0,0,0,0,0,0.0959,0.0959,0.0949,0.0953,0.0956,0.0965,0.0976,0.0988,0.1003,0.1019,0.1026,0.1047,0.1068,0.1073,0.1087,0.1088,0.1126,0.1098,0.1101,0.1103,0.114,0.1229,0.1243,0.1084,0.1084,0.1084,0,0,0.0963,0.0963,0.0961,0.0959,0.0965,0.096,0.0977,0.0994,0.0996,0.1014,0.1032,0.106,0.1077,0.1092,0.1105,0.1091,0.1157,0.1107,0.1109,0.1145,0.1234,0.1249,0.1263,0.1087,0.1086,0.1086,0,0,0.0966,0.0976,0.0973,0.0973,0.0985,0.0984,0.0995,0.0998,0.1012,0.1026,0.1053,0.1099,0.1099,0.1123,0.1134,0.1165,0.118,0.1162,0.1195,0.1279,0.1294,0.1307,0.1321,0.1336,0.1151,0.1151,0.1151,0,0.098,0.0961,0.0974,0.0972,0.0977,0.0996,0.0992,0.0997,0.1011,0.1037,0.1037,0.1127,0.1119,0.1181,0.1185,0.1171,0.121,0.1169,0.1284,0.1298,0.1312,0.1324,0.134,0.1151,0.1151,0.1151,0.1151,0,0.096,0.096,0.0962,0.0958,0.0973,0.0971,0.0977,0.0998,0.1022,0.1041,0.1121,0.1146,0.1216,0.1202,0.1194,0.1286,0.1276,0.1284,0.1271,0.1328,0.1336,0.1353,0.1152,0.1152,0.1152,0.1152,0,0,0.0953,0.0943,0.0949,0.0946,0.0963,0.0968,0.0988,0.1014,0.1055,0.1095,0.1171,0.1207,0.1274,0.1296,0.1311,0.1363,0.1442,0.1362,0.1366,0.1371,0.1598,0.1442,0.1445,0.1482,0.1487,0.149,0.1545,0,0.0932,0.0907,0.0924,0.0922,0.0909,0.095,0.0975,0.1019,0.1059,0.1133,0.1215,0.1288,0.1291,0.1341,0.1408,0.1458,0.1498,0.1425,0.1551,0.1554,0.1405,0.1464,0.1504,0.1558,0.1562,0.1565,0.1567,0,0.09,0.0893,0.0874,0.0902,0.0909,0.0933,0.1006,0.1025,0.1135,0.1179,0.1306,0.1377,0.1496,0.1479,0.1632,0.1595,0.1607,0.1624,0.1627,0.1509,0.1432,0.1506,0.1598,0.1595,0.1593,0.1591,0.1589,0,0.0853,0.0862,0.0846,0.0848,0.0885,0.0928,0.097,0.1061,0.1111,0.1234,0.1311,0.1469,0.158,0.166,0.17,0.169,0.1837,0.1821,0.1688,0.1674,0.1798,0.1784,0.1924,0.1924,0.1924,0.1924,0.1924,0,0.0795,0.0794,0.0836,0.0818,0.0863,0.0917,0.0992,0.104,0.1175,0.1254,0.1361,0.1457,0.1643,0.1741,0.1749,0.1769,0.1887,0.1718,0.1701,0.1784,0.1769,0.1806,0.1791,0.1926,0.1925,0.1925,0.1924,0,0.0725,0.0741,0.073,0.0786,0.0828,0.0863,0.1001,0.1062,0.1172,0.1291,0.1346,0.1521,0.1634,0.174,0.1861,0.1824,0.1836,0.1794,0.1843,0.1824,0.16,0.1585,0.1687,0.1682,0.1678,0.1675,0.1672,0,0.0674,0.0654,0.0695,0.0726,0.0761,0.0846,0.0921,0.1048,0.1125,0.1294,0.1358,0.152,0.1612,0.1673,0.1762,0.1782,0.1751,0.1736,0.1709,0.1615,0.1588,0.1579,0.157,0.1666,0.1665,0.1664,0.1663,0,0.0583,0.06,0.0596,0.0653,0.0731,0.079,0.091,0.0971,0.1123,0.1249,0.1348,0.1405,0.1527,0.1615,0.164,0.1637,0.1747,0.1696,0.1704,0.1679,0.1591,0.1566,0.1562,0.165,0.1652,0.1653,0.1654,0,0.0527,0.0517,0.053,0.0596,0.0673,0.0723,0.0782,0.0907,0.1005,0.1222,0.1245,0.1371,0.1527,0.1534,0.1538,0.1549,0.1537,0.1486,0.1505,0.1521,0.1438,0.13,0.1278,0,0,0,0,0,0.0469,0.0467,0.0493,0.054,0.0607,0.0665,0.0785,0.0858,0.1036,0.1085,0.1172,0.1251,0.1306,0.1364,0.1346,0.1437,0.1518,0.1404,0.1464,0.1576,0.1591,0.1506,0,0,0,0,0,0,0.043,0.0429,0.046,0.05,0.0542,0.0608,0.068,0.0778,0.0828,0.1004,0.1055,0.1172,0.1254,0.1325,0.1329,0.1343,0.135,0.1491,0.1487,0.1567,0.1581,0.1593,0.1511,0,0,0,0,0]},{"header":{"parameterUnit":"m.s-1","parameterCategory":2,"la1":30.2991,"la2":30.254,"lo1":-89.0895,"lo2":-89.0444,"dy":0.0017,"dx":0.0017,"nx":28,"ny":28,"refTime":"2025-09-16T03:00:00:Z","depth":"4","parameterNumber":3,"parameterNumberName":"V-component_of_CURRENTS"},"data":[0,0,0,0,0,0,0,0,0,0,0,0,0,0,0,0,0,0,0,0,0,0,0,0,0,0,0,0,0,0,0,0,0,0,0,0,0,0,0,0,0,0,0,0,0,0,0,0,0,0,0,0,0,0,0,0,0,0,0.0074,0.0074,0,0.0068,0.0068,0.0068,0.0049,0.0049,0.0049,0.0048,0.004,0.004,0.004,0,0,0,0,0,0,0,0,0,0,0,0,0,0.0076,0.0076,0.0074,0.0074,0.0074,0.0068,0.0068,0.0068,0.005,0.0049,0.0049,0.0048,0.004,0.004,0.004,0,0,0,0,0,0,0,0,0,0,0,0,0,0.0073,0.0076,0.0074,0.0064,0.0063,0.0068,0.0068,0.0068,0.005,0.0049,0.0049,0.0048,0.004,0.004,0.004,0.0052,0,0,0.004,0.0041,0,0,0,0,0,0,0,0,0.0073,0.0073,0.0066,0.0065,0.0064,0.0059,0.0066,0.0063,0.005,0.0054,0.0048,0.0048,0.0047,0.0046,0.0046,0.0052,0.0052,0.004,0.0041,0.0041,0.0041,0,0,0,0,0,0,0,0.0073,0.0073,0.0071,0.0066,0.0065,0.0063,0.0061,0.0065,0.0053,0.0054,0.0053,0.0053,0.0046,0.0046,0.0046,0.0051,0.004,0.0041,0.0041,0.0041,0.0049,0.0049,0,0,0,0,0,0,0.0075,0.0073,0.0071,0.0071,0.0068,0.0063,0.0062,0.0061,0.0053,0.0052,0.0053,0.0052,0.0046,0.0045,0.0045,0.0056,0.0041,0.0041,0.0041,0.0049,0.0049,0.0049,0,0,0,0,0,0,0.0075,0.0075,0.0072,0.0072,0.0072,0.0064,0.0063,0.0061,0.0059,0.0053,0.0051,0.0052,0.0045,0.0045,0.004,0.0055,0.0041,0.0041,0.0049,0.0049,0.0049,0.008,0,0,0,0,0,0,0.0075,0.0075,0.0071,0.0072,0.0072,0.0073,0.0064,0.0062,0.006,0.0058,0.0052,0.005,0.0045,0.004,0.004,0.0055,0.0041,0.0049,0.0049,0.0049,0.0078,0.0081,0.0083,0,0,0,0,0,0.0075,0.0074,0.0071,0.0071,0.0069,0.0074,0.0073,0.0065,0.006,0.006,0.0051,0.005,0.0042,0.004,0.0041,0.0056,0.0049,0.0049,0.0049,0.0077,0.008,0.0083,0,0,0,0,0,0,0.0072,0.0073,0.0069,0.0068,0.007,0.007,0.007,0.0067,0.0061,0.0059,0.0051,0.0049,0.0049,0.0047,0.0045,0.0057,0.0046,0.0047,0.0067,0.007,0.0072,0.0071,0.0041,0,0,0,0,0,0.0071,0.007,0.0072,0.0071,0.0074,0.0073,0.0073,0.0071,0.0068,0.0065,0.0061,0.0056,0.0053,0.0055,0.005,0.0061,0.0035,0.007,0.0072,0.0074,0.0073,0.0033,0.0031,0.005,0.005,0.005,0,0,0.0072,0.0069,0.007,0.007,0.0072,0.0084,0.0071,0.0076,0.0085,0.0066,0.0073,0.0062,0.0054,0.006,0.0062,0.0061,0.0056,0.0074,0.0076,0.0074,0.0033,0.0031,0.003,0.0051,0.005,0.005,0,0,0.0078,0.0071,0.0077,0.0081,0.0084,0.0088,0.0091,0.0095,0.0094,0.01,0.0085,0.0076,0.0083,0.0074,0.0072,0.0083,0.0064,0.009,0.0109,0.0071,0.0069,0.0067,0.0036,0.0031,0.0098,0.0098,0.0098,0,0.0078,0.0089,0.008,0.0089,0.0099,0.0093,0.0113,0.0111,0.0112,0.0114,0.0106,0.0096,0.0088,0.0088,0.0092,0.0089,0.0065,0.0102,0.0074,0.0071,0.0068,0.0037,0.0031,0.01,0.0099,0.0099,0.0099,0,0.0095,0.0105,0.011,0.0122,0.0128,0.0144,0.0148,0.0153,0.0154,0.0149,0.0145,0.0125,0.0121,0.0119,0.0111,0.0097,0.0086,0.0075,0.0067,0.0068,0.0035,0.0028,0.0102,0.0101,0.0101,0.01,0,0,0.0098,0.0121,0.0124,0.0144,0.0152,0.0166,0.0179,0.0193,0.0202,0.019,0.0196,0.0178,0.016,0.0155,0.0141,0.011,0.0072,0.0091,0.0089,0.0061,-0.0009,0.0002,-0.0005,0.0056,0.0055,0.0054,-0.0023,0,0.012,0.0157,0.0157,0.0197,0.0225,0.0223,0.0241,0.0245,0.0237,0.0237,0.0207,0.0203,0.0177,0.0178,0.0141,0.0093,0.0054,0.0094,-0.0006,-0.0009,0.0,-0.0012,0.005,-0.0028,-0.003,-0.0031,-0.0032,0,0.0139,0.0169,0.0217,0.0257,0.0267,0.0287,0.0315,0.0326,0.0311,0.0302,0.0277,0.0249,0.0215,0.0187,0.0093,0.0121,0.0057,0.0009,0.0005,-0.0002,-0.0012,-0.0031,-0.0045,-0.0044,-0.0043,-0.0042,-0.0041,0,0.0168,0.0208,0.0255,0.0268,0.0308,0.0332,0.0353,0.0351,0.0369,0.0339,0.0339,0.0282,0.0271,0.0176,0.0079,0.0087,-0.0038,-0.004,-0.0097,-0.0097,-0.0097,-0.0094,-0.0127,-0.0127,-0.0127,-0.0127,-0.0126,0,0.0196,0.0232,0.0277,0.0309,0.0366,0.0374,0.0422,0.042,0.0428,0.0441,0.0378,0.0366,0.0266,0.0186,0.0083,-0.0026,-0.0039,-0.01,-0.0119,-0.0082,-0.0076,-0.0102,-0.0098,-0.013,-0.0129,-0.0128,-0.0128,0,0.0215,0.0244,0.0306,0.0366,0.0385,0.0428,0.0486,0.0517,0.0504,0.0517,0.0513,0.0444,0.0343,0.0222,0.0074,-0.0,-0.0123,-0.0168,-0.0119,-0.0133,-0.0156,-0.015,-0.0222,-0.0222,-0.0223,-0.0223,-0.0223,0,0.0225,0.0261,0.0349,0.0392,0.0423,0.0487,0.0535,0.0559,0.0582,0.0554,0.056,0.0479,0.0413,0.0214,0.008,-0.0111,-0.0141,-0.0204,-0.018,-0.0156,-0.0168,-0.0161,-0.0154,-0.0223,-0.0223,-0.0224,-0.0224,0,0.0251,0.0286,0.0343,0.0429,0.0495,0.0561,0.0621,0.0648,0.0659,0.0658,0.0599,0.0492,0.0383,0.0229,0.0081,-0.0064,-0.0159,-0.0207,-0.0207,-0.0185,-0.0159,-0.0168,-0.0162,-0.0225,-0.0224,-0.0224,-0.0224,0,0.0266,0.0308,0.0382,0.0453,0.0534,0.0595,0.0635,0.0663,0.069,0.066,0.0639,0.0501,0.0439,0.0251,0.0102,-0.0022,-0.0044,-0.0086,-0.0093,-0.0093,-0.0032,0.0022,-0.0008,0,0,0,0,0,0.0286,0.0329,0.0394,0.0478,0.0556,0.0597,0.0668,0.0699,0.0718,0.069,0.0666,0.0553,0.0356,0.0267,0.0148,0.0095,-0.0072,-0.005,-0.0125,-0.023,-0.0229,-0.0178,0,0,0,0,0,0,0.0298,0.0366,0.0392,0.0473,0.0527,0.061,0.0657,0.0676,0.0659,0.0657,0.0559,0.0518,0.0332,0.0423,0.0142,0.0104,0.0039,-0.0135,-0.0138,-0.023,-0.0229,-0.0229,-0.0176,0,0,0,0,0]}]]